Probability
0 0 0 0 0 0 0 0 0 0 0 0 0 0 0 0 0 0 0 0 0 0 0 0 0 0 0 0 0 0 0 0 0 0 0 0 0 0 0 0 0 0 0 0
0 0 0 0 0 0 0 0 0 0 0 0 0 0 0 0 0 0 0 0 0 0 0 0 0 0 0 0 0 0 0 0 0 0 0 0 0 0 0 0 0 0 0 0
0 0 0 0 0 0 0 0 0 0 0 0 0 0 0 0 0 0 0 0 0 0 0 0 0 0 0 0 0 0 0 0 0 0 0 0 0 0 0 0 0 0 0 0
0 0 0 0 0 0 0 0 0 0 0 0 0 0 0 0 0 0 0 0 0 0 0 0 0 0 0 0 0 0 0 0 0 0 0 0 0 0 0 0 0 0 0 0
0 0 0 0 0 0 0 0 0 0 0 0 0 0 0 0 0 0 0 0 0 0 0 0 0 0 0 0 0 0 0 0 0 0 0 0 0 0 0 0 0 0 0 0
0 0 0 0 0 0 0 0 0 0 0 0 0 0 0 0 0 0 0 0 0 0 0 0 0 0 0 0 0 0 0 0 0 0 0 0 0 0 0 0 0 0 0 0
0 0 0 0 0 0 0 0 0 0 0 0 0 0 0 0 0 0 0 0 0 0 0 0 0 0 0 0 0 0 0 0 0 0 0 0 0 0 0 0 0 0 0 0
0 0 0 0 0 0 0 0 0 0 0 0 0 0 0 0 0 0 0 0 0 0 0 0 0 0 0 0 0 0 0 0 0 0 0 0 0 0 0 0 0 0 0 0
0 0 0 0 0 0 0 0 0 0 0 0 0 0 0 0 0 0 0 0 0 0 0 0 0 0 0 0 0 0 0 0 0 0 0 0 0 0 0 0 0 0 0 0
0 0 0 0 0 0 0 0 0 0 0 0 0 0 0 0 0 0 0 0 0 0 0 0 0 0 0 0 0 0 0 0 0 0 0 0 0 0 0 0 0 0 0 0
0 0 0 0 0 0 0 0 0 0 0 0 0 0 0 0 0 0 0 0 0 0 0 0 0 0 0 0 0 0 0 0 0 0 0 0 0 0 0 0 0 0 0 0
0 0 0 0 0 0 0 0 0 0 0 0 0 0 0 0 0 0 0 0 0 0 0 0 0 0 0 0 0 0 0 0 0 0 0 0 0 0 0 0 0 0 0 0
0 0 0 0 0 0 0 0 0 0 0 0 0 0 0 0 0 0 0 0 0 0 0 0 0 0 0 0 0 0 0 0 0 0 0 0 0 0 0 0 0 0 0 0
0 0 0 0 0 0 0 0 0 0 0 0 0 0 0 0 0 0 0 0 0 0 0 0 0 0 0 0 0 0 0 0 0 0 0 0 0 0 0 0 0 0 0 0
0 0 0 0 0 0 0 0 0 0 0 0 0 0 0 0 0 0 0 0 0 0 0 0 0 0 0 0 0 0 0 0 0 0 0 0 0 0 0 0 0 0 0 0
0 0 0 0 0 0 0 0 0 0 0 0 0 0 0 0 0 0 0 0 0 0 0 0 0 0 0 0 0 0 0 0 0 0 0 0 0 0 0 0 0 0 0 0
0 0 0 0 0 0 0 0 0 0 0 0 0 0 0 0 0 0 0 0 0 0 0 0 0 0 0 0 0 0 0 0 0 0 0 0 0 0 0 0 0 0 0 0
0 0 0 0 0 0 0 0 0 0 0 0 0 0 0 0 0 0 0 0 0 0 0 0 0 0 0 0 0 0 0 0 0 0 0 0 0 0 0 0 0 0 0 0
0 0 0 0 0 0 0 0 0 0 0 0 0 0 0 0 0 0 0 0 0 0 0 0 0 0 0 0 0 0 0 0 0 0 0 0 0 0 0 0 0 0 0 0
0 0 0 0 0 0 0 0 0 0 0 0 0 0 0 0 0 0 0 0 0 0 0 0 0 0 0 0 0 0 0 0 0 0 0 0 0 0 0 0 0 0 0 0
0 0 0 0 0 0 0 0 0 0 0 0 0 0 0 0 0 0 0 0 0 0 0 0 0 0 0 0 0 0 0 0 0 0 0 0 0 0 0 0 0 0 0 0
0 0 0 0 0 0 0 0 0 0 0 0 0 0 0 0 0 0 0 0 0 0 0 0 0 0 0 0 0 0 0 0 0 0 0 0 0 0 0 0 0 0 0 0
0 0 0 0 0 0 0 0 0 0 0 0 0 0 0 0 0 0 0 0 0 0 0 0 0 0 0 0 0 0 0 0 0 0 0 0 0 0 0 0 0 0 0 0
0 0 0 0 0 0 0 0 0 0 0 0 0 0 0 0 0 0 0 0 0 0 0 0 0 0 0 0 0 0 0 0 0 0 0 0 0 0 0 0 0 0 0 0
0 0 0 0 0 0 0 0 0 0 0 0 0 0 0 0 0 0 0 0 0 0 0 0 0 0 0 0 0 0 0 0 0 0 0 0 0 0 0 0 0 0 0 0
0 0 0 0 0 0 0 0 0 0 0 0 0 0 0 0 0 0 0 0 0 0 0 0 0 0 0 0 0 0 0 0 0 0 0 0 0 0 0 0 0 0 0 0
0 0 0 0 0 0 0 0 0 0 0 0 0 0 0 0 0 0 0 0 0 0 0 0 0 0 0 0 0 0 0 0 0 0 0 0 0 0 0 0 0 0 0 0
Height
5656 5655 5655 5655 5654 5654 5653 5653 5652 5651 5650 5649 5648 5646 5645 5643 5642 5640 5638 5636 5633 5631 5628 5626 5623 5620 5618 5616 5614 5613 5612 5612 5611 5611 5611 5611 5612 5613 5614 5616 5617 5619 5620 5621
5658 5657 5657 5656 5656 5655 5654 5654 5653 5652 5651 5650 5648 5647 5646 5644 5643 5641 5639 5637 5635 5633 5630 5628 5625 5623 5621 5619 5617 5615 5614 5613 5612 5611 5611 5611 5611 5611 5611 5612 5612 5613 5614 5615
5660 5659 5659 5658 5657 5656 5656 5655 5654 5652 5652 5650 5649 5648 5646 5645 5644 5642 5641 5639 5636 5634 5632 5629 5627 5625 5623 5621 5619 5617 5616 5614 5613 5612 5611 5610 5610 5609 5608 5608 5608 5607 5608 5608
5662 5662 5660 5661 5658 5657 5656 5655 5654 5653 5652 5651 5650 5648 5647 5646 5644 5643 5641 5639 5637 5635 5632 5630 5628 5626 5624 5622 5620 5618 5616 5615 5613 5612 5611 5609 5608 5606 5605 5604 5603 5602 5601 5600
5662 5661 5661 5660 5659 5657 5657 5656 5655 5654 5653 5651 5650 5649 5647 5646 5644 5642 5640 5638 5636 5634 5632 5630 5628 5626 5624 5622 5620 5618 5616 5614 5612 5610 5608 5606 5605 5603 5601 5599 5597 5595 5593 5591
5662 5661 5661 5661 5659 5657 5658 5656 5655 5653 5652 5651 5650 5649 5647 5645 5643 5641 5639 5637 5635 5633 5631 5629 5626 5624 5622 5620 5618 5616 5614 5612 5610 5607 5605 5602 5600 5597 5595 5592 5590 5587 5584 5581
5661 5660 5660 5659 5657 5657 5657 5656 5654 5652 5651 5649 5648 5647 5645 5643 5641 5639 5637 5635 5633 5631 5628 5626 5624 5622 5620 5618 5616 5613 5611 5608 5606 5603 5600 5597 5594 5591 5588 5585 5582 5578 5574 5570
5660 5659 5660 5657 5655 5655 5655 5653 5651 5650 5649 5647 5646 5644 5643 5641 5639 5637 5635 5633 5630 5628 5625 5623 5621 5618 5616 5614 5612 5609 5606 5604 5601 5597 5594 5591 5587 5583 5580 5576 5572 5567 5563 5558
5659 5659 5656 5654 5653 5652 5651 5650 5648 5647 5646 5644 5643 5641 5640 5638 5636 5634 5631 5629 5627 5624 5622 5619 5617 5614 5612 5609 5606 5603 5601 5597 5594 5590 5586 5582 5578 5574 5569 5565 5560 5555 5550 5545
5655 5654 5652 5651 5650 5649 5647 5646 5645 5643 5642 5641 5639 5637 5635 5633 5631 5629 5627 5624 5622 5619 5617 5614 5612 5609 5606 5603 5600 5597 5594 5590 5586 5582 5578 5573 5568 5563 5558 5553 5548 5543 5537 5531
5651 5651 5649 5647 5646 5645 5643 5642 5640 5639 5638 5636 5635 5633 5631 5628 5626 5624 5621 5619 5616 5614 5611 5608 5606 5603 5600 5596 5593 5589 5586 5582 5577 5573 5568 5563 5557 5552 5546 5540 5534 5528 5522 5516
5647 5646 5645 5644 5641 5640 5638 5637 5635 5634 5632 5631 5629 5627 5625 5623 5620 5618 5615 5613 5610 5607 5604 5601 5598 5595 5592 5588 5585 5581 5577 5572 5567 5563 5557 5551 5545 5539 5532 5526 5520 5513 5506 5500
5642 5640 5639 5638 5636 5635 5633 5631 5630 5628 5626 5624 5622 5620 5618 5616 5613 5611 5608 5605 5603 5600 5596 5593 5590 5586 5583 5579 5575 5571 5567 5562 5557 5551 5546 5539 5533 5526 5519 5512 5505 5498 5491 5485
5635 5634 5633 5631 5630 5628 5626 5625 5623 5621 5619 5617 5615 5613 5611 5608 5606 5603 5600 5597 5594 5591 5587 5584 5581 5577 5573 5569 5565 5560 5556 5551 5545 5539 5533 5527 5520 5513 5506 5499 5492 5484 5477 5470
5628 5626 5625 5624 5622 5621 5619 5617 5616 5614 5611 5609 5607 5604 5602 5599 5597 5594 5591 5588 5585 5581 5578 5574 5570 5567 5563 5558 5554 5549 5544 5539 5533 5527 5520 5513 5506 5499 5492 5485 5477 5470 5463 5456
5620 5618 5617 5616 5614 5612 5611 5609 5607 5605 5603 5601 5598 5595 5593 5590 5587 5584 5581 5578 5574 5571 5567 5564 5560 5556 5551 5547 5542 5537 5532 5526 5520 5514 5507 5500 5493 5485 5478 5471 5463 5456 5449 5441
5611 5610 5608 5607 5606 5604 5602 5600 5598 5596 5594 5591 5589 5586 5583 5580 5577 5574 5570 5567 5563 5560 5556 5553 5549 5544 5540 5535 5530 5525 5519 5513 5507 5501 5494 5486 5479 5472 5464 5457 5449 5442 5435 5427
5601 5600 5599 5597 5596 5594 5592 5590 5588 5586 5584 5582 5579 5576 5573 5570 5566 5563 5559 5556 5552 5548 5545 5541 5537 5532 5528 5523 5518 5513 5507 5501 5494 5488 5480 5473 5466 5458 5450 5443 5435 5428 5421 5413
5590 5589 5588 5587 5585 5583 5582 5580 5577 5575 5573 5571 5568 5565 5562 5559 5555 5552 5548 5544 5540 5537 5533 5529 5524 5520 5515 5511 5505 5500 5494 5488 5481 5474 5467 5459 5452 5444 5437 5429 5422 5415 5408 5400
5579 5578 5577 5575 5574 5572 5570 5568 5566 5564 5562 5559 5557 5554 5550 5547 5544 5540 5536 5532 5528 5525 5521 5516 5512 5508 5503 5498 5492 5487 5481 5474 5468 5461 5454 5446 5439 5431 5424 5416 5409 5402 5395 5387
5567 5566 5565 5563 5562 5560 5558 5556 5554 5552 5550 5548 5545 5542 5539 5535 5531 5528 5524 5520 5516 5512 5508 5504 5500 5495 5490 5485 5479 5474 5468 5461 5455 5448 5440 5433 5425 5418 5411 5404 5397 5390 5383 5375
5556 5555 5553 5551 5550 5548 5546 5545 5543 5540 5538 5535 5533 5530 5527 5523 5519 5515 5512 5508 5504 5500 5496 5492 5487 5482 5478 5472 5467 5461 5455 5448 5442 5434 5427 5420 5413 5406 5399 5392 5385 5378 5372 5365
5544 5543 5541 5540 5538 5537 5535 5533 5531 5529 5526 5523 5521 5518 5514 5511 5507 5504 5500 5496 5492 5488 5484 5479 5475 5470 5465 5460 5454 5448 5442 5435 5429 5422 5415 5408 5401 5394 5388 5381 5375 5368 5362 5356
5532 5531 5529 5528 5527 5525 5523 5521 5519 5517 5514 5511 5508 5505 5502 5499 5495 5492 5488 5484 5480 5476 5471 5467 5462 5457 5452 5447 5441 5436 5429 5423 5417 5410 5403 5396 5390 5384 5377 5371 5365 5359 5353 5347
5520 5519 5518 5516 5515 5513 5511 5509 5507 5505 5502 5499 5496 5493 5490 5487 5483 5479 5475 5471 5467 5463 5459 5455 5450 5445 5440 5435 5429 5424 5418 5411 5405 5399 5393 5386 5380 5374 5368 5362 5357 5351 5345 5340
5507 5506 5505 5504 5502 5501 5499 5497 5495 5492 5489 5487 5484 5481 5477 5474 5471 5467 5463 5459 5455 5451 5447 5443 5438 5433 5428 5423 5418 5412 5406 5401 5395 5389 5383 5377 5371 5365 5360 5354 5349 5343 5338 5334
5494 5493 5492 5491 5490 5488 5486 5484 5482 5480 5477 5474 5472 5469 5465 5462 5458 5455 5451 5447 5443 5440 5436 5431 5427 5422 5417 5412 5407 5402 5397 5391 5385 5380 5374 5368 5363 5357 5352 5346 5342 5337 5332 5328
Wind_Speed
8 8 7 7 7 6 5 5 6 7 7 7 6 6 7 7 8 9 10 11 12 12 13 13 13 13 12 10 8 7 5 3 3 3 4 6 9 12 15 19 23 25 28 31
8 7 7 6 5 5 5 6 6 7 7 7 7 6 6 7 7 8 9 10 11 12 13 13 13 12 12 11 10 9 7 6 6 5 5 6 7 9 12 16 19 22 25 29
6 6 5 5 5 5 5 6 6 7 7 6 6 6 6 7 8 9 10 10 11 11 12 12 13 12 12 11 10 9 9 8 8 8 8 9 9 11 13 15 18 20 23 27
5 4 4 4 4 4 4 5 5 6 6 6 6 6 7 8 9 9 10 11 11 11 12 12 11 11 11 11 11 10 11 11 11 11 12 13 14 15 17 18 20 23 26 29
3 3 3 3 3 3 3 4 5 5 5 6 6 7 7 9 10 11 11 11 12 12 13 13 13 12 12 12 12 13 13 13 14 15 16 16 17 18 20 22 23 26 29 32
2 3 3 4 4 4 5 5 6 6 6 6 7 8 9 10 11 11 12 12 13 13 14 14 14 14 14 14 14 15 16 16 17 18 20 21 21 22 24 25 27 29 32 34
4 4 5 5 6 6 7 7 8 8 9 9 10 10 10 11 12 13 14 15 15 16 16 16 17 17 17 17 17 18 19 20 21 22 23 24 25 26 27 29 31 34 35 37
6 7 7 8 8 8 8 9 10 10 10 10 11 12 12 14 15 15 16 17 18 18 19 19 19 20 20 20 21 21 22 23 24 25 26 28 29 31 32 34 36 37 39 41
8 8 9 9 9 10 10 11 11 11 12 12 13 14 15 16 17 18 18 19 20 20 21 21 22 22 22 23 24 25 26 27 28 30 31 32 34 35 37 38 40 42 43 45
9 10 10 10 11 12 12 12 13 13 14 15 16 17 18 19 19 20 21 21 22 23 23 24 24 24 25 26 27 29 30 31 32 33 35 37 38 40 41 43 44 45 47 48
13 12 12 12 13 14 14 14 14 15 16 17 18 19 20 21 21 22 23 23 24 25 25 26 27 28 28 29 30 31 33 34 35 37 39 41 42 44 45 46 47 48 49 50
15 15 15 14 15 16 16 16 16 17 18 19 20 21 23 24 24 25 25 26 27 28 28 29 30 31 32 33 34 35 36 38 39 41 43 44 45 47 48 50 50 51 51 52
18 18 18 18 18 18 19 19 19 20 20 21 22 23 24 25 26 27 28 29 30 30 31 32 33 34 35 36 37 38 39 41 42 44 45 47 48 49 50 51 52 52 52 53
20 21 21 21 21 22 22 22 22 23 23 24 25 26 27 28 29 30 30 31 32 32 33 34 35 36 37 38 39 40 42 43 45 46 48 49 50 51 51 51 52 52 53 53
22 23 23 24 24 25 25 25 26 26 26 26 27 29 30 31 32 32 32 33 34 34 35 36 37 37 39 40 41 42 44 45 47 48 50 51 51 52 52 52 52 52 52 52
24 24 24 25 25 26 26 27 27 28 28 28 29 30 31 32 33 33 34 35 36 36 37 38 39 39 40 41 43 44 45 46 48 49 50 51 52 52 53 52 52 51 51 51
27 27 27 27 27 28 28 28 28 29 29 30 31 32 33 34 35 35 36 37 37 38 39 40 40 41 42 43 44 45 46 47 49 50 51 52 52 53 53 52 51 51 51 51
30 30 29 29 29 29 30 30 31 31 31 32 33 34 35 35 36 37 38 38 38 39 40 41 41 42 43 44 45 46 48 49 51 52 52 53 53 53 52 51 51 50 50 50
31 31 31 32 32 32 32 32 33 33 33 34 34 35 36 37 38 38 39 39 39 40 41 41 42 43 45 46 47 48 49 50 51 52 52 53 53 52 52 51 50 50 49 49
31 32 32 32 33 33 34 34 34 34 34 35 36 37 38 38 39 40 40 40 40 41 42 43 44 44 46 47 47 48 49 50 51 52 52 52 52 52 51 50 49 48 48 47
33 33 33 33 33 34 34 34 35 35 36 37 37 38 39 40 40 40 41 41 41 42 43 43 44 45 46 47 47 48 49 50 51 51 52 52 51 50 49 48 47 45 45 44
35 35 34 34 34 34 34 35 35 36 37 38 39 39 40 40 40 41 41 41 41 42 43 43 44 45 46 47 47 48 49 49 50 50 50 50 49 48 47 45 43 43 42 41
35 36 36 35 35 35 36 36 36 37 37 38 38 39 39 40 40 41 41 41 42 42 43 44 44 45 46 46 47 47 48 48 49 49 48 48 46 45 43 42 41 40 39 37
36 36 36 36 37 37 37 38 38 38 38 39 39 39 40 40 41 41 42 42 42 43 43 44 44 45 45 45 45 45 46 46 47 47 46 45 43 41 40 39 39 38 36 33
37 36 36 37 37 38 38 39 39 39 39 40 40 40 40 40 41 42 42 42 42 42 43 43 43 44 44 44 44 44 44 44 44 44 43 41 40 39 38 38 36 35 32 30
37 37 37 38 38 39 39 39 39 39 40 40 40 40 40 40 41 41 42 42 41 41 41 41 42 42 42 42 41 41 41 41 41 40 40 38 37 37 36 35 33 31 28 26
39 39 39 39 39 39 40 40 40 40 40 40 39 39 40 41 41 41 40 40 39 39 40 40 40 40 40 39 39 39 39 38 38 37 37 36 35 35 34 32 29 27 25 24
Wind_Direction
82 85 89 86 81 78 70 62 52 43 40 46 47 40 39 41 37 29 26 26 23 22 23 24 24 24 24 24 23 23 14 358 337 297 270 263 254 251 251 252 252 253 252 251
73 72 70 68 67 60 54 51 46 38 40 39 40 39 34 30 28 24 20 16 14 14 16 16 15 13 13 13 12 11 11 3 357 342 321 301 282 268 261 258 258 257 256 254
63 58 54 52 58 56 45 37 34 31 34 34 30 30 27 20 18 16 13 11 9 6 6 6 7 6 4 6 360 0 1 358 347 335 324 310 299 291 284 278 274 269 265 264
53 49 44 47 46 43 32 27 29 26 26 23 17 12 5 0 358 356 354 356 356 354 352 350 348 350 349 349 346 339 336 331 326 319 312 307 301 295 291 289 285 281 276 273
38 36 30 15 15 13 2 4 6 6 5 2 358 352 344 338 337 338 338 340 341 340 339 338 338 337 334 333 331 329 325 321 317 315 312 307 302 296 293 291 289 287 283 279
2 345 339 327 318 318 320 328 331 332 332 332 330 328 328 325 325 327 327 327 326 326 326 325 325 325 324 323 323 323 321 319 316 314 311 307 304 300 298 296 295 293 290 287
312 312 314 309 303 300 305 310 312 313 314 314 316 317 319 320 320 321 322 322 320 319 318 318 317 317 317 317 316 315 314 313 312 311 310 308 306 304 302 300 299 297 295 293
303 299 294 294 294 296 298 302 304 305 305 306 309 310 310 310 312 313 315 316 316 316 316 315 315 314 313 312 311 310 309 309 308 308 308 308 306 305 303 301 300 300 298 296
305 302 294 291 291 292 293 296 297 296 295 297 300 301 302 303 305 307 309 310 311 311 312 311 310 310 309 309 308 308 308 308 308 308 308 307 307 305 304 302 301 301 299 298
295 296 294 294 292 291 290 291 290 290 292 295 297 298 299 301 302 304 305 305 306 306 307 307 306 305 305 305 305 305 306 307 308 308 308 308 307 306 305 303 302 301 300 299
287 288 290 294 295 294 292 290 290 290 292 294 295 298 300 300 301 302 302 302 302 302 303 303 302 302 302 303 303 304 305 306 307 307 307 307 307 306 305 304 303 302 302 301
284 285 286 287 290 293 292 290 290 291 292 294 295 296 297 297 297 298 299 299 299 299 300 300 300 300 301 301 302 303 304 305 306 306 307 307 307 306 305 305 304 303 302 302
279 281 284 285 287 290 291 290 289 290 291 291 293 294 296 296 295 295 296 296 297 297 298 298 299 300 300 301 302 303 304 305 305 306 306 306 306 306 306 306 305 303 302 302
278 280 281 283 285 287 289 289 289 288 290 291 291 292 293 293 293 294 294 295 295 296 296 297 299 300 300 301 302 302 303 304 305 306 306 307 307 307 306 306 305 304 303 303
279 279 280 281 283 285 286 287 288 288 289 290 292 293 293 293 292 292 292 293 294 294 295 296 297 299 300 301 302 303 305 306 307 307 308 308 308 307 307 307 306 305 305 304
278 279 280 281 283 285 286 287 288 289 289 290 291 292 293 294 292 291 291 292 292 293 294 294 295 297 298 300 301 303 305 307 308 308 309 309 309 309 308 308 307 306 306 306
276 277 279 280 282 284 285 287 288 289 290 291 293 293 294 294 293 293 292 293 293 293 294 294 296 297 299 300 301 303 305 306 307 309 309 310 310 310 310 309 308 307 307 307
275 276 277 279 281 284 285 285 286 288 289 290 292 293 294 295 295 294 294 294 293 293 294 294 296 297 299 300 302 303 304 305 307 309 310 310 310 310 310 310 309 309 308 308
274 275 277 279 281 282 283 284 285 287 289 290 292 293 294 295 295 295 295 294 293 293 294 295 296 298 299 300 301 303 304 306 308 309 310 310 310 311 311 310 310 309 309 310
273 275 277 279 280 281 282 283 284 286 288 290 292 293 294 294 295 295 295 294 294 294 294 295 297 298 299 300 302 303 305 306 308 309 310 310 311 312 311 310 310 310 311 311
274 276 278 279 280 281 282 283 284 286 288 290 292 293 294 294 294 294 294 294 294 294 295 296 298 299 300 301 302 303 305 307 308 309 310 311 312 312 312 311 311 311 312 313
275 276 277 278 279 280 282 284 285 287 288 290 291 293 294 294 294 294 294 294 294 295 296 297 298 299 301 302 303 304 306 308 309 310 311 312 312 312 312 312 312 312 313 314
276 276 277 277 278 280 282 284 286 288 289 290 292 293 294 294 294 295 295 295 295 296 297 298 299 300 302 303 304 305 307 309 310 311 312 312 312 313 313 312 313 314 314 314
277 277 277 278 279 281 283 284 286 288 289 290 292 293 294 294 294 295 295 295 295 296 297 299 300 301 302 303 305 306 308 310 311 312 313 313 313 313 313 314 314 315 315 314
276 277 278 279 281 283 284 285 287 288 290 291 292 293 294 294 295 295 296 296 296 297 298 300 301 303 304 305 306 308 309 310 312 313 315 315 314 314 314 315 315 316 315 315
274 276 277 280 282 284 285 285 287 289 290 291 292 293 294 295 295 296 296 297 297 298 300 301 302 304 305 306 307 309 310 311 313 315 316 316 316 315 316 316 316 316 316 315
274 275 277 279 282 284 285 286 287 289 290 291 292 293 294 295 295 296 296 297 298 299 300 302 303 305 306 307 308 310 311 313 314 316 316 317 317 318 318 318 318 317 317 317